Miscellaneous Local Product
Issued by NWS Hastings, NE

Home | Current Version | Previous Version | Graphics & Text | Print | Product List | Glossary On
Versions: 1 2 3 4 5 6 7 8 9 10 11 12 13 14 15 16 17 18 19 20 21 22 23 24 25 26 27 28 29 30 31 32 33 34 35 36 37 38 39 40 41 42 43 44 45 46 47 48 49 50
635
AXUS43 KGID 220202
MISGRI

GID CWA HOURLY WEATHER ROUNDUP
NATIONAL WEATHER SERVICE HASTINGS NE
900 PM CDT WED JUN 21 2017

NOTE: "FAIR" INDICATES FEW OR NO CLOUDS BELOW 12,000 FEET WITH NO
SIGNIFICANT WEATHER AND/OR OBSTRUCTIONS TO VISIBILITY.

...SOUTH CENTRAL NEBRASKA...

CITY           SKY/WX    TMP DP  RH WIND       PRES   REMARKS
GRAND ISLAND   CLOUDY    89  70  53 S16       29.66S HX  94
HASTINGS       CLOUDY    89  66  46 S13       29.70R HX  91
KEARNEY        CLOUDY    90  68  48 S17       29.67F HX  93
ORD            PTCLDY    87  68  52 S3        29.64F HX  90
YORK           CLEAR     88  64  45 S17G24    29.67S
AURORA         PTCLDY    89  66  46 S14G22    29.67S HX  91
LEXINGTON      PTCLDY    85  62  46 S10       29.69R
HOLDREGE       CLOUDY    84  64  51 S15G23    29.69F
HEBRON         CLEAR     88  57  35 S8        29.71R

...NEBRASKA PANHANDLE...

CITY           SKY/WX    TMP DP  RH WIND       PRES   REMARKS
CHADRON        CLEAR     81  59  47 E6        29.72F
ALLIANCE       CLEAR     83  57  41 E5        29.78S
SCOTTSBLUFF    CLEAR     83  50  31 NE8       29.78S
SIDNEY         CLEAR     84  51  31 E3        29.83F

...WESTERN AND NORTH CENTRAL NEBRASKA...

CITY           SKY/WX    TMP DP  RH WIND       PRES   REMARKS
VALENTINE      CLOUDY    91  53  27 NE7       29.70S
AINSWORTH      MOCLDY    85  64  49 E5        29.71S
ONEILL         CLOUDY    86  68  53 NE6       29.68F
BROKEN BOW     PTCLDY    82  65  56 S14G24    29.68F THUNDER
IMPERIAL       CLEAR     87  49  26 N7        29.74S
NORTH PLATTE   CLEAR     88  55  32 N7        29.70S
MCCOOK         CLEAR     91  54  28 N7        29.67S

...EASTERN NEBRASKA...

CITY           SKY/WX    TMP DP  RH WIND       PRES   REMARKS
NORFOLK        CLOUDY    86  68  54 S8        29.63R
SO SIOUX CITY  CLOUDY    91  71  51 S14       29.60F HX  97
TEKAMAH        CLEAR     90  63  40 S14       29.64R HX  91
COLUMBUS       PTCLDY    90  70  51 S13       29.65S HX  95
ALBION         PTCLDY    87  70  57 S5        29.64F HX  91
OMAHA EPPLEY   PTCLDY    89  61  38 S17       29.67S
OFFUTT AFB     CLEAR     86  60  41 S13       29.68S
MILLARD        CLEAR     89  64  41 S10G16    29.68S HX  90
LINCOLN        CLOUDY    86  61  42 S16       29.67F
NEBRASKA CITY  CLEAR     84  59  42 S20G25    29.72S
BEATRICE       CLEAR     86  62  43 S14G21    29.71S
FALLS CITY     CLEAR     83  63  50 S9        29.74F

...NORTHERN KANSAS...

CITY           SKY/WX    TMP DP  RH WIND       PRES   REMARKS
GOODLAND       CLEAR     83  56  39 N7        29.77R
HILL CITY      PTCLDY    88  70  55 S10       29.70R HX  93
NORTON         CLEAR     88  48  25 S16G24    29.66R
PHILLIPSBURG   CLEAR     91  64  40 SE15G22   29.68R HX  93
SMITH CENTER   PTCLDY    88  63  42 SE18G24   29.70R
HAYS           CLOUDY    87  66  49 S21G30    29.70F
RUSSELL        MOCLDY    87  56  34 S24G31    29.70F
CONCORDIA      CLEAR     86  55  34 S15       29.72R HAZE
SALINA         CLEAR     89  50  26 S15       29.74R
TOPEKA         CLEAR     82  67  60 SE8       29.78F



USA.gov is the U.S. government's official web portal to all federal, state and local government web resources and services.